Weather History for KSAW - November, 2013

Change the Weather History Date:

Monday, November 4, 2013

  Actual Average (KESC) Record (KESC)
Temperature  
Mean Temperature 44 °F -  
Max Temperature 46 °F 45 °F 62 °F (2008)
Min Temperature 41 °F 31 °F 17 °F (1991)
Degree Days  
Heating Degree Days 22    
Moisture  
Dew Point 39 °F    
Average Humidity 82    
Maximum Humidity 89    
Minimum Humidity 76    
Precipitation  
Precipitation 0.00 in - - ()
Sea Level Pressure  
Sea Level Pressure 30.11 in    
Wind  
Wind Speed 19 mph (South)    
Max Wind Speed 26 mph    
Max Gust Speed 36 mph    
Visibility 10 miles    
Events Rain    
Averages and records for this station are not official NWS values.
T = Trace of Precipitation, MM = Missing Value Source: NWS Daily Summary

Daily Weather History Graph

Daily Weather History Graph

Search for Another Location

Airport or City:

Trip Planner

Search our weather history database for the weather conditions in past years. The results will help you decide how hot, cold, wet, or windy it might be!

Date:

Astronomy

Nov. 04, 2013 Rise Set
Actual Time 7:35 AM EST 5:30 PM EST
Civil Twilight 7:03 AM EST 6:01 PM EST
Nautical Twilight 6:28 AM EST 6:37 PM EST
Astronomical Twilight 5:53 AM EST 7:12 PM EST
Moon 8:49 AM EST (11/4) 6:30 PM EST (11/4)
Length of Visible Light 10h 57m
Length of Day
9h 54m
New Moon, 2% of the Moon is Illuminated
Nov 4
New Moon
Nov 10
First Quarter
Nov 17
Full
Nov 25
Last Quarter
Dec 2
New

Hourly Weather History & Observations

Time (EST) Temp. Windchill Dew Point Humidity Pressure Visibility Wind Dir Wind Speed Gust Speed Precip Events Conditions
12:16 AM 41.2 °F 33.4 °F 36.3 °F 83% 30.20 in 10.0 mi South 15.0 mph 23.0 mph N/A   Overcast
12:36 AM 41.5 °F 32.9 °F 36.5 °F 82% 30.20 in 10.0 mi South 18.4 mph 21.9 mph N/A   Overcast
12:57 AM 41.9 °F 33.1 °F 36.5 °F 81% 30.21 in 10.0 mi South 19.6 mph 24.2 mph N/A   Overcast
1:16 AM 41.9 °F 33.1 °F 36.5 °F 81% 30.21 in 10.0 mi South 19.6 mph 25.3 mph N/A   Overcast
1:37 AM 41.9 °F 32.6 °F 36.7 °F 82% 30.21 in 10.0 mi South 21.9 mph 25.3 mph N/A   Overcast
1:56 AM 42.1 °F 33.3 °F 36.9 °F 82% 30.21 in 10.0 mi South 19.6 mph 26.5 mph N/A   Overcast
2:16 AM 42.3 °F 34.1 °F 37.0 °F 82% 30.21 in 10.0 mi South 17.3 mph 25.3 mph N/A   Overcast
2:37 AM 42.3 °F 34.4 °F 37.0 °F 82% 30.21 in 10.0 mi South 16.1 mph 24.2 mph N/A   Overcast
2:56 AM 42.3 °F 34.4 °F 36.9 °F 81% 30.21 in 10.0 mi South 16.1 mph 26.5 mph N/A   Overcast
3:17 AM 42.3 °F 34.4 °F 37.0 °F 82% 30.20 in 10.0 mi South 16.1 mph - N/A   Overcast
3:36 AM 42.3 °F 34.1 °F 37.4 °F 83% 30.19 in 10.0 mi South 17.3 mph 26.5 mph N/A   Overcast
3:56 AM 42.3 °F 33.8 °F 37.4 °F 83% 30.19 in 10.0 mi South 18.4 mph 23.0 mph N/A   Overcast
4:17 AM 42.4 °F 34.1 °F 37.6 °F 83% 30.19 in 10.0 mi South 18.4 mph 25.3 mph N/A   Overcast
4:36 AM 42.8 °F 35.1 °F 37.8 °F 82% 30.18 in 10.0 mi South 16.1 mph 25.3 mph N/A   Overcast
4:57 AM 42.8 °F 34.5 °F 37.9 °F 83% 30.18 in 10.0 mi South 18.4 mph 24.2 mph N/A   Overcast
5:17 AM 42.8 °F 34.5 °F 38.1 °F 84% 30.18 in 10.0 mi South 18.4 mph 28.8 mph N/A   Overcast
5:36 AM 42.8 °F 33.8 °F 37.9 °F 83% 30.18 in 10.0 mi South 21.9 mph 28.8 mph N/A   Overcast
5:57 AM 42.8 °F 34.0 °F 37.9 °F 83% 30.17 in 10.0 mi South 20.7 mph 27.6 mph N/A   Overcast
6:45 AM 42.8 °F 34.3 °F 37.4 °F 81% 30.16 in 10.0 mi South 19.6 mph 27.6 mph N/A   Overcast
7:55 AM 42.8 °F 33.5 °F 37.4 °F 81% 30.15 in 10.0 mi South 23.0 mph 28.8 mph N/A   Overcast
8:55 AM 42.8 °F 35.1 °F 37.4 °F 81% 30.13 in 10.0 mi South 16.1 mph 28.8 mph N/A   Overcast
9:55 AM 44.6 °F 35.7 °F 39.2 °F 81% 30.13 in 10.0 mi South 24.2 mph 28.8 mph N/A   Overcast
10:55 AM 44.6 °F 35.9 °F 39.2 °F 81% 30.11 in 10.0 mi SSE 23.0 mph 29.9 mph N/A   Overcast
11:50 AM 44.6 °F 35.7 °F 39.2 °F 81% 30.10 in 10.0 mi South 24.2 mph 34.5 mph N/A   Overcast
12:50 PM 46.4 °F 38.7 °F 39.2 °F 76% 30.06 in 10.0 mi South 20.7 mph 31.1 mph N/A   Overcast
1:50 PM 46.4 °F 38.7 °F 39.2 °F 76% 30.03 in 10.0 mi South 20.7 mph 33.4 mph N/A   Overcast
2:50 PM 46.4 °F 37.7 °F 39.2 °F 76% 29.99 in 10.0 mi South 26.5 mph 34.5 mph N/A   Overcast
3:50 PM 46.4 °F 37.9 °F 39.2 °F 76% 29.99 in 10.0 mi South 25.3 mph 32.2 mph N/A   Overcast
4:50 PM 46.4 °F 38.1 °F 39.2 °F 76% 29.98 in 10.0 mi South 24.2 mph 35.7 mph N/A   Overcast
5:50 PM 46.4 °F 38.1 °F 39.2 °F 76% 29.98 in 10.0 mi South 24.2 mph 32.2 mph N/A   Overcast
6:50 PM 44.6 °F 36.4 °F 39.2 °F 81% 29.99 in 10.0 mi South 20.7 mph 31.1 mph N/A   Overcast
7:55 PM 44.6 °F 36.6 °F 41.0 °F 87% 30.01 in 10.0 mi SSW 19.6 mph 28.8 mph N/A   Overcast
8:50 PM 44.6 °F 36.4 °F 41.0 °F 87% 30.01 in 7.0 mi SSW 20.7 mph 27.6 mph N/A Rain Light Rain
9:50 PM 44.6 °F 37.8 °F 41.0 °F 87% 30.01 in 10.0 mi SSW 15.0 mph 21.9 mph N/A   Overcast
10:16 PM 44.8 °F 37.4 °F 41.7 °F 89% 30.01 in 10.0 mi SSW 17.3 mph 20.7 mph N/A   Overcast
10:37 PM 44.8 °F 38.3 °F 41.7 °F 89% 30.02 in 10.0 mi SSW 13.8 mph - N/A   Overcast
10:56 PM 45.1 °F 38.4 °F 41.9 °F 88% 30.03 in 10.0 mi SSW 15.0 mph - N/A   Overcast
11:17 PM 45.1 °F 39.1 °F 41.9 °F 88% 30.03 in 10.0 mi SSW 12.7 mph 18.4 mph N/A   Overcast
11:36 PM 45.5 °F 40.3 °F 41.9 °F 87% 30.03 in 10.0 mi SW 10.4 mph 19.6 mph N/A   Overcast
11:56 PM 45.5 °F 39.2 °F 41.9 °F 87% 30.04 in 10.0 mi SSW 13.8 mph - N/A   Overcast